User: anonymous   Login
Location: NJAA Observatory
(40.6819°N, 74.8979°W)
Time: 18:12:52
(UTC-04:00)
Language:

Cosmos 1939 Rocket - Orbit

View from above orbital plane
View from above orbital plane
View from above satellite
View from above satellite

Ground track
Ground track

The orbit data is extracted from the following two-line orbital elements,

1 19046U 88032B   15117.17680818  .00002103  00000-0  16654-3 0  9996
2 19046 097.6188 170.7227 0042733 114.4759 246.0931 15.00957582455277
Epoch (UTC): 27 April 2015 04:14:36
Eccentricity: 0.0042733
inclination: 97.6188°
perigee height: 534 km
apogee height: 593 km
right ascension of ascending node: 170.7227°
argument of perigee: 114.4759°
revolutions per day: 15.00957582
mean anomaly at epoch: 246.0931°
orbit number at epoch: 45527

The dashed part of the orbit path shows where the satellite is in the earth's shadow,  

DLR